Regional Weather Roundup
Issued by NWS Charleston, WV

Home | Current Version | Previous Version | Graphics & Text | Print | Product List | Glossary On
Versions: 1 2 3 4 5 6 7 8 9 10 11 12 13 14 15 16 17 18 19 20 21 22 23 24 25 26 27 28 29 30 31 32 33 34 35 36 37 38 39 40 41 42 43 44 45 46 47 48 49 50
000
ASUS41 KRLX 251810
RWRRLX
West Virginia Regional Weather Roundup
National Weather Service Charleston WV
100 PM EST THU DEC 25 2014

Note: "fair" indicates few or no clouds below 12,000 feet with no
significant weather and/or obstructions to visibility.

WVZ003-251900-
Northern Panhandle of West Virginia

CITY           SKY/WX    TMP DP  RH WIND       PRES   REMARKS
WHEELING       LGT RAIN  38  31  76 W12G22    30.04R
$$

WVZ009-251900-
Northwest West Virginia

CITY           SKY/WX    TMP DP  RH WIND       PRES   REMARKS
PARKERSBURG    CLOUDY    41  31  67 W13G23    30.12S
$$

WVZ006-251900-
Western West Virginia

CITY           SKY/WX    TMP DP  RH WIND       PRES   REMARKS
HUNTINGTON     CLOUDY    41  32  70 W8        30.14S
$$

WVZ015-251900-
West Central West Virginia

CITY           SKY/WX    TMP DP  RH WIND       PRES   REMARKS
CHARLESTON     CLOUDY    42  32  67 W9        30.13R
$$

WVZ022-031-251900-
North Central West Virginia

CITY           SKY/WX    TMP DP  RH WIND       PRES   REMARKS
CLARKSBURG     LGT RAIN  39  34  82 SW15G22   30.07R
MORGANTOWN     PTSUNNY   42  30  62 VRB7G20   30.05R
$$

WVZ025-035-042-045-251900-
Southern West Virginia

CITY           SKY/WX    TMP DP  RH WIND       PRES   REMARKS
BECKLEY        CLOUDY    38  30  73 NW14      30.09R
LOGAN          CLOUDY    41  32  70 SW7       30.12R
BLUEFIELD      CLOUDY    39  28  64 NW13G24   30.08S
LEWISBURG      CLOUDY    41  31  67 W5        30.06S
$$

WVZ047-251900-
Northern Mountains of West Virginia

CITY           SKY/WX    TMP DP  RH WIND       PRES   REMARKS
ELKINS         LGT RAIN  38  34  85 W10G21    30.05R
$$

WVZ052-251900-
Eastern Panhandle of West Virginia

CITY           SKY/WX    TMP DP  RH WIND       PRES   REMARKS
MARTINSBURG    PTSUNNY   52  29  41 W25       29.96R
PETERSBURG     MOSUNNY   46  26  46 W16G31    30.02R
$$


USA.gov is the U.S. government's official web portal to all federal, state and local government web resources and services.